| time (UTC) | temp F | wind direction | speed knots | gust knots | rain 1hr in | rain 24hr in | rain mn in | humidity % | barometer mb |
| 20260508100526 | 57 | 0 | 0.9 | 3.5 | 0.00 | 0.01 | 0.00 | 82 | 1017.0 |
| 20260508100054 | 56 | 139 | 0.9 | 3.5 | 0.00 | 0.01 | 0.00 | 82 | 1017.0 |
| 20260508095521 | 56 | 139 | 1.7 | 3.5 | 0.00 | 0.01 | 0.00 | 83 | 1017.0 |
| 20260508095021 | 56 | 139 | 0.9 | 3.5 | 0.00 | 0.01 | 0.00 | 83 | 1017.0 |
| 20260508094541 | 56 | 139 | 0.9 | 3.5 | 0.00 | 0.01 | 0.00 | 84 | 1017.0 |
| 20260508094022 | 55 | 141 | 0.9 | 3.5 | 0.00 | 0.01 | 0.00 | 85 | 1017.0 |
| 20260508093522 | 55 | 0 | 0.9 | 3.5 | 0.00 | 0.01 | 0.00 | 85 | 1017.0 |
| 20260508093039 | 55 | 0 | 0.9 | 4.3 | 0.00 | 0.01 | 0.00 | 85 | 1017.0 |
| 20260508092521 | 54 | 141 | 1.7 | 4.3 | 0.00 | 0.01 | 0.00 | 85 | 1017.0 |
| 20260508092021 | 54 | 143 | 0.9 | 4.3 | 0.00 | 0.01 | 0.00 | 86 | 1017.0 |
| 20260508091546 | 54 | 143 | 1.7 | 4.3 | 0.00 | 0.01 | 0.00 | 87 | 1017.1 |
| 20260508091022 | 54 | 146 | 0.9 | 4.3 | 0.00 | 0.01 | 0.00 | 89 | 1017.0 |
| 20260508090522 | 53 | 0 | 1.7 | 4.3 | 0.00 | 0.01 | 0.00 | 90 | 1017.0 |
| 20260508090108 | 53 | 152 | 1.7 | 3.5 | 0.00 | 0.01 | 0.00 | 90 | 1017.0 |
| 20260508085521 | 52 | 138 | 0.9 | 3.5 | 0.00 | 0.01 | 0.00 | 90 | 1017.1 |
| 20260508085021 | 52 | 138 | 0.9 | 3.5 | 0.00 | 0.01 | 0.00 | 90 | 1016.8 |
| 20260508084545 | 52 | 138 | 0.9 | 5.2 | 0.00 | 0.01 | 0.00 | 91 | 1016.8 |
| 20260508084023 | 51 | 138 | 0.0 | 5.2 | 0.00 | 0.01 | 0.00 | 92 | 1016.8 |
| 20260508083524 | 51 | 138 | 1.7 | 5.2 | 0.00 | 0.01 | 0.00 | 92 | 1016.8 |
| 20260508083041 | 51 | 133 | 0.9 | 3.5 | 0.00 | 0.01 | 0.00 | 92 | 1016.8 |
| 20260508082522 | 50 | 126 | 0.0 | 1.7 | 0.00 | 0.01 | 0.00 | 93 | 1016.7 |
| 20260508082022 | 50 | 0 | 0.0 | 3.5 | 0.00 | 0.01 | 0.00 | 93 | 1016.7 |
| 20260508081553 | 50 | 124 | 0.0 | 3.5 | 0.00 | 0.01 | 0.00 | 93 | 1016.6 |
| 20260508081022 | 50 | 124 | 0.9 | 3.5 | 0.00 | 0.01 | 0.00 | 93 | 1016.6 |
| 20260508080527 | 49 | 124 | 0.9 | 4.3 | 0.00 | 0.01 | 0.00 | 93 | 1016.6 |
| 20260508080037 | 49 | 124 | 1.7 | 4.3 | 0.00 | 0.01 | 0.00 | 93 | 1016.6 |
| 20260508075523 | 49 | 124 | 0.9 | 2.6 | 0.00 | 0.01 | 0.00 | 93 | 1016.6 |
| 20260508075020 | 49 | 0 | 0.9 | 3.5 | 0.00 | 0.01 | 0.00 | 93 | 1016.6 |
| 20260508074535 | 49 | 0 | 1.7 | 3.5 | 0.00 | 0.01 | 0.00 | 93 | 1016.6 |
| 20260508074020 | 49 | 137 | 0.9 | 3.5 | 0.00 | 0.01 | 0.00 | 93 | 1016.5 |
| 20260508073518 | 49 | 139 | 1.7 | 4.3 | 0.00 | 0.01 | 0.00 | 94 | 1016.5 |
| 20260508073101 | 49 | 140 | 1.7 | 4.3 | 0.00 | 0.01 | 0.00 | 94 | 1016.5 |
| 20260508072518 | 49 | 141 | 1.7 | 4.3 | 0.00 | 0.01 | 0.00 | 94 | 1016.5 |
| 20260508072018 | 49 | 144 | 1.7 | 4.3 | 0.00 | 0.01 | 0.00 | 94 | 1016.5 |
| 20260508071541 | 48 | 154 | 0.9 | 4.3 | 0.00 | 0.01 | 0.00 | 95 | 1016.5 |
| 20260508071022 | 48 | 160 | 0.9 | 4.3 | 0.00 | 0.01 | 0.00 | 95 | 1016.5 |
| 20260508070518 | 48 | 165 | 0.9 | 4.3 | 0.00 | 0.01 | 0.00 | 95 | 1016.5 |
| 20260508070046 | 48 | 166 | 1.7 | 4.3 | 0.00 | 0.01 | 0.00 | 95 | 1016.3 |
| 20260508065519 | 48 | 168 | 0.9 | 3.5 | 0.00 | 0.01 | 0.00 | 95 | 1016.4 |
| 20260508065021 | 48 | 169 | 1.7 | 3.5 | 0.00 | 0.01 | 0.00 | 95 | 1016.4 |
| 20260508064537 | 47 | 171 | 0.9 | 4.3 | 0.00 | 0.01 | 0.00 | 95 | 1016.3 |
| 20260508064018 | 47 | 0 | 0.9 | 4.3 | 0.00 | 0.01 | 0.00 | 95 | 1016.3 |
| 20260508063518 | 47 | 180 | 0.9 | 4.3 | 0.00 | 0.01 | 0.00 | 96 | 1016.3 |
| 20260508063038 | 47 | 193 | 0.9 | 4.3 | 0.00 | 0.01 | 0.00 | 95 | 1016.3 |
| 20260508062521 | 47 | 170 | 0.9 | 4.3 | 0.00 | 0.01 | 0.00 | 96 | 1016.2 |
| 20260508062019 | 46 | 180 | 0.9 | 6.1 | 0.00 | 0.01 | 0.00 | 96 | 1016.2 |
| 20260508061545 | 46 | 125 | 1.7 | 6.1 | 0.00 | 0.01 | 0.00 | 96 | 1016.1 |
| 20260508061021 | 46 | 122 | 1.7 | 4.3 | 0.00 | 0.01 | 0.00 | 96 | 1016.0 |
| 20260508060521 | 46 | 120 | 1.7 | 6.1 | 0.00 | 0.01 | 0.00 | 96 | 1016.0 |
| 20260508060059 | 46 | 119 | 1.7 | 6.1 | 0.00 | 0.01 | 0.00 | 96 | 1015.9 |
| 20260508055518 | 46 | 109 | 0.9 | 2.6 | 0.00 | 0.01 | 0.00 | 96 | 1015.9 |
| 20260508055018 | 45 | 102 | 0.9 | 3.5 | 0.00 | 0.01 | 0.00 | 96 | 1015.9 |
| 20260508054542 | 45 | 101 | 0.9 | 3.5 | 0.00 | 0.01 | 0.00 | 96 | 1015.9 |
| 20260508054021 | 45 | 0 | 0.0 | 3.5 | 0.00 | 0.01 | 0.00 | 96 | 1015.8 |
| 20260508053518 | 45 | 0 | 0.0 | 3.5 | 0.00 | 0.01 | 0.00 | 96 | 1015.8 |
| 20260508053040 | 45 | 81 | 0.9 | 2.6 | 0.00 | 0.01 | 0.00 | 96 | 1015.8 |
| 20260508052518 | 44 | 149 | 0.0 | 2.6 | 0.00 | 0.01 | 0.00 | 95 | 1015.7 |
| 20260508052021 | 44 | 160 | 0.0 | 1.7 | 0.00 | 0.01 | 0.00 | 95 | 1015.7 |
| 20260508051555 | 44 | 203 | 0.0 | 1.7 | 0.00 | 0.01 | 0.00 | 95 | 1015.6 |
| 20260508051025 | 44 | 0 | 0.0 | 1.7 | 0.00 | 0.01 | 0.00 | 95 | 1015.6 |
| 20260508050518 | 44 | 0 | 0.0 | 2.6 | 0.00 | 0.01 | 0.00 | 96 | 1015.6 |
| 20260508050036 | 44 | 211 | 0.0 | 2.6 | 0.00 | 0.01 | 0.00 | 96 | 1015.6 |
| 20260508045517 | 44 | 0 | 0.9 | 2.6 | 0.00 | 0.01 | 0.00 | 95 | 1015.6 |
| 20260508045017 | 44 | 110 | 0.9 | 3.5 | 0.00 | 0.01 | 0.00 | 95 | 1015.6 |
| 20260508044548 | 44 | 109 | 0.9 | 3.5 | 0.00 | 0.01 | 0.00 | 95 | 1015.6 |
| 20260508044019 | 44 | 110 | 0.9 | 3.5 | 0.00 | 0.01 | 0.00 | 95 | 1015.7 |
| 20260508043518 | 44 | 111 | 0.9 | 2.6 | 0.00 | 0.01 | 0.00 | 95 | 1015.6 |
| 20260508043040 | 44 | 110 | 0.0 | 2.6 | 0.00 | 0.01 | 0.00 | 95 | 1015.5 |
| 20260508042518 | 44 | 110 | 0.0 | 2.6 | 0.00 | 0.01 | 0.00 | 95 | 1015.5 |
| 20260508042018 | 44 | 0 | 0.9 | 2.6 | 0.00 | 0.01 | 0.00 | 95 | 1015.5 |
| 20260508041540 | 44 | 147 | 0.9 | 2.6 | 0.00 | 0.01 | 0.00 | 95 | 1015.5 |
| 20260508041019 | 43 | 147 | 0.9 | 2.6 | 0.00 | 0.01 | 0.00 | 95 | 1015.5 |
| 20260508040519 | 43 | 147 | 0.9 | 2.6 | 0.00 | 0.01 | 0.00 | 95 | 1015.4 |
| 20260508040048 | 43 | 0 | 0.0 | 2.6 | 0.00 | 0.01 | 0.00 | 95 | 1015.5 |
| 20260508035519 | 43 | 147 | 0.0 | 1.7 | 0.00 | 0.01 | 0.00 | 95 | 1015.6 |
| 20260508035018 | 43 | 0 | 0.0 | 0.0 | 0.00 | 0.01 | 0.00 | 95 | 1015.5 |
| 20260508034544 | 43 | 0 | 0.0 | 0.0 | 0.00 | 0.01 | 0.00 | 95 | 1015.5 |
| 20260508034019 | 43 | 0 | 0.0 | 0.0 | 0.00 | 0.01 | 0.00 | 94 | 1015.5 |
| 20260508033523 | 43 | 0 | 0.0 | 0.0 | 0.00 | 0.01 | 0.00 | 95 | 1015.6 |
| 20260508033047 | 43 | 0 | 0.0 | 0.0 | 0.00 | 0.01 | 0.00 | 95 | 1015.5 |
| 20260508032521 | 43 | 0 | 0.0 | 0.0 | 0.00 | 0.01 | 0.00 | 94 | 1015.5 |
| 20260508032020 | 43 | 0 | 0.0 | 0.0 | 0.00 | 0.01 | 0.00 | 94 | 1015.5 |
| 20260508031553 | 43 | 0 | 0.0 | 0.0 | 0.00 | 0.01 | 0.00 | 94 | 1015.5 |
| 20260508031019 | 43 | 0 | 0.0 | 0.0 | 0.00 | 0.01 | 0.00 | 94 | 1015.5 |
| 20260508030518 | 43 | 0 | 0.0 | 0.0 | 0.00 | 0.01 | 0.00 | 94 | 1015.4 |
| 20260508030041 | 43 | 0 | 0.0 | 0.0 | 0.00 | 0.01 | 0.00 | 94 | 1015.4 |
| 20260508025520 | 43 | 0 | 0.0 | 0.0 | 0.00 | 0.01 | 0.00 | 94 | 1015.4 |
| 20260508025021 | 43 | 0 | 0.0 | 1.7 | 0.00 | 0.01 | 0.00 | 94 | 1015.4 |
| 20260508024559 | 43 | 0 | 0.0 | 1.7 | 0.00 | 0.01 | 0.00 | 94 | 1015.4 |
| 20260508024019 | 43 | 0 | 0.0 | 1.7 | 0.00 | 0.01 | 0.00 | 94 | 1015.4 |
| 20260508023519 | 43 | 0 | 0.0 | 0.0 | 0.00 | 0.01 | 0.00 | 94 | 1015.4 |
| 20260508023038 | 43 | 0 | 0.0 | 0.9 | 0.00 | 0.01 | 0.00 | 94 | 1015.5 |
| 20260508022519 | 43 | 0 | 0.0 | 0.9 | 0.00 | 0.01 | 0.00 | 94 | 1015.5 |
| 20260508022019 | 43 | 0 | 0.0 | 2.6 | 0.00 | 0.01 | 0.00 | 94 | 1015.5 |
| 20260508021547 | 44 | 0 | 0.0 | 3.5 | 0.00 | 0.01 | 0.00 | 94 | 1015.5 |
| 20260508021018 | 44 | 0 | 0.9 | 3.5 | 0.00 | 0.01 | 0.00 | 94 | 1015.4 |
| 20260508020518 | 44 | 148 | 0.9 | 2.6 | 0.00 | 0.01 | 0.00 | 94 | 1015.3 |
| 20260508020050 | 44 | 148 | 0.9 | 2.6 | 0.00 | 0.01 | 0.00 | 94 | 1015.3 |
| 20260508015518 | 44 | 0 | 0.0 | 1.7 | 0.00 | 0.01 | 0.00 | 93 | 1015.4 |
| 20260508015019 | 44 | 0 | 0.0 | 0.9 | 0.00 | 0.01 | 0.00 | 94 | 1015.4 |
| 20260508014549 | 44 | 0 | 0.0 | 1.7 | 0.00 | 0.01 | 0.00 | 94 | 1015.4 |
| 20260508014018 | 44 | 0 | 0.0 | 1.7 | 0.00 | 0.01 | 0.00 | 94 | 1015.4 |
| 20260508013521 | 44 | 0 | 0.9 | 1.7 | 0.00 | 0.01 | 0.00 | 94 | 1015.5 |
| 20260508013040 | 44 | 0 | 0.0 | 0.0 | 0.00 | 0.01 | 0.00 | 94 | 1015.4 |
| 20260508012518 | 45 | 0 | 0.0 | 0.9 | 0.00 | 0.01 | 0.00 | 93 | 1015.2 |
| 20260508012018 | 45 | 0 | 0.0 | 1.7 | 0.00 | 0.01 | 0.00 | 93 | 1015.2 |
| 20260508011534 | 45 | 0 | 0.0 | 1.7 | 0.00 | 0.01 | 0.00 | 93 | 1015.3 |
| 20260508011019 | 45 | 0 | 0.0 | 2.6 | 0.00 | 0.01 | 0.00 | 93 | 1015.3 |
| 20260508010518 | 45 | 0 | 0.0 | 3.5 | 0.00 | 0.01 | 0.00 | 94 | 1015.3 |
| 20260508010051 | 46 | 148 | 0.9 | 3.5 | 0.00 | 0.01 | 0.00 | 94 | 1015.4 |
| 20260508005518 | 46 | 148 | 0.9 | 3.5 | 0.00 | 0.01 | 0.00 | 94 | 1015.3 |
| 20260508005019 | 46 | 149 | 0.9 | 3.5 | 0.00 | 0.01 | 0.00 | 94 | 1015.3 |
| 20260508004545 | 46 | 148 | 1.7 | 3.5 | 0.00 | 0.01 | 0.00 | 94 | 1015.3 |
| 20260508004021 | 46 | 0 | 0.0 | 2.6 | 0.00 | 0.01 | 0.00 | 94 | 1015.3 |
| 20260508003519 | 46 | 0 | 0.0 | 1.7 | 0.00 | 0.01 | 0.00 | 94 | 1015.4 |
| 20260508003034 | 46 | 0 | 0.0 | 1.7 | 0.00 | 0.01 | 0.00 | 94 | 1015.3 |
| 20260508002519 | 46 | 149 | 0.0 | 2.6 | 0.00 | 0.01 | 0.00 | 94 | 1015.3 |
| 20260508002022 | 46 | 0 | 0.9 | 2.6 | 0.00 | 0.01 | 0.00 | 94 | 1015.4 |
| 20260508001546 | 46 | 0 | 0.0 | 0.9 | 0.00 | 0.01 | 0.00 | 94 | 1015.4 |
| 20260508001018 | 46 | 0 | 0.0 | 0.9 | 0.00 | 0.01 | 0.00 | 94 | 1015.4 |
| 20260508000521 | 46 | 0 | 0.0 | 0.9 | 0.00 | 0.01 | 0.00 | 94 | 1015.5 |
| 20260508000042 | 46 | 0 | 0.0 | 0.0 | 0.00 | 0.01 | 0.00 | 93 | 1015.5 |
| 20260507235521 | 46 | 0 | 0.0 | 0.0 | 0.00 | 0.01 | 0.00 | 93 | 1015.6 |
| 20260507235018 | 46 | 0 | 0.0 | 0.0 | 0.00 | 0.01 | 0.00 | 93 | 1015.4 |
| 20260507234541 | 46 | 0 | 0.0 | 0.0 | 0.00 | 0.01 | 0.00 | 93 | 1015.5 |
| 20260507234018 | 46 | 0 | 0.0 | 0.0 | 0.00 | 0.01 | 0.00 | 93 | 1015.5 |
| 20260507233522 | 46 | 0 | 0.0 | 0.0 | 0.00 | 0.01 | 0.00 | 93 | 1015.4 |
| 20260507233040 | 46 | 0 | 0.0 | 0.0 | 0.00 | 0.01 | 0.00 | 93 | 1015.5 |
| 20260507232519 | 46 | 0 | 0.0 | 0.0 | 0.00 | 0.01 | 0.00 | 93 | 1015.5 |
| 20260507232018 | 46 | 0 | 0.0 | 1.7 | 0.00 | 0.01 | 0.00 | 93 | 1015.4 |
| 20260507231536 | 46 | 0 | 0.0 | 1.7 | 0.00 | 0.01 | 0.00 | 93 | 1015.5 |
| 20260507231019 | 46 | 149 | 0.0 | 1.7 | 0.00 | 0.01 | 0.00 | 93 | 1015.5 |
| 20260507230519 | 47 | 0 | 0.0 | 1.7 | 0.00 | 0.01 | 0.00 | 93 | 1015.4 |
| 20260507230055 | 47 | 0 | 0.0 | 1.7 | 0.00 | 0.01 | 0.00 | 93 | 1015.5 |
| 20260507225519 | 47 | 149 | 0.0 | 0.9 | 0.00 | 0.01 | 0.01 | 93 | 1015.4 |
| 20260507225019 | 47 | 0 | 0.0 | 2.6 | 0.00 | 0.01 | 0.01 | 93 | 1015.5 |
| 20260507224542 | 47 | 0 | 0.0 | 2.6 | 0.00 | 0.01 | 0.01 | 93 | 1015.5 |
| 20260507224020 | 47 | 149 | 0.9 | 2.6 | 0.00 | 0.01 | 0.01 | 93 | 1015.5 |
| 20260507223519 | 47 | 0 | 0.0 | 0.9 | 0.00 | 0.01 | 0.01 | 93 | 1015.5 |
| 20260507223040 | 47 | 0 | 0.0 | 1.7 | 0.00 | 0.01 | 0.01 | 92 | 1015.4 |
| 20260507222522 | 47 | 0 | 0.0 | 1.7 | 0.00 | 0.01 | 0.01 | 92 | 1015.4 |
| 20260507222023 | 47 | 149 | 0.0 | 1.7 | 0.00 | 0.01 | 0.01 | 92 | 1015.4 |
| 20260507221540 | 47 | 0 | 0.0 | 1.7 | 0.00 | 0.01 | 0.01 | 91 | 1015.4 |
| 20260507221025 | 47 | 0 | 0.0 | 2.6 | 0.00 | 0.01 | 0.01 | 91 | 1015.3 |
| 20260507220524 | 47 | 0 | 0.9 | 2.6 | 0.00 | 0.01 | 0.01 | 91 | 1015.3 |
| 20260507220045 | 47 | 0 | 0.0 | 0.0 | 0.00 | 0.01 | 0.01 | 91 | 1015.3 |
| 20260507215522 | 47 | 0 | 0.0 | 0.0 | 0.00 | 0.01 | 0.01 | 90 | 1015.3 |
| 20260507215021 | 47 | 0 | 0.0 | 0.0 | 0.00 | 0.01 | 0.01 | 90 | 1015.2 |
| 20260507214543 | 48 | 0 | 0.0 | 0.0 | 0.00 | 0.01 | 0.01 | 90 | 1015.2 |
| 20260507214023 | 48 | 0 | 0.0 | 0.0 | 0.00 | 0.01 | 0.01 | 90 | 1015.2 |
| 20260507213521 | 48 | 0 | 0.0 | 0.0 | 0.00 | 0.01 | 0.01 | 90 | 1015.2 |
| 20260507213043 | 48 | 0 | 0.0 | 0.9 | 0.00 | 0.01 | 0.01 | 89 | 1015.1 |
| 20260507212521 | 48 | 0 | 0.0 | 2.6 | 0.00 | 0.01 | 0.01 | 89 | 1015.3 |
| 20260507212021 | 49 | 0 | 0.0 | 2.6 | 0.00 | 0.01 | 0.01 | 88 | 1015.2 |
| 20260507211536 | 49 | 0 | 0.0 | 2.6 | 0.00 | 0.01 | 0.01 | 88 | 1015.2 |
| 20260507211025 | 49 | 0 | 0.0 | 1.7 | 0.00 | 0.01 | 0.01 | 88 | 1015.2 |
| 20260507210526 | 49 | 149 | 0.0 | 2.6 | 0.00 | 0.01 | 0.01 | 87 | 1015.1 |
| 20260507210039 | 50 | 0 | 0.0 | 2.6 | 0.00 | 0.01 | 0.01 | 87 | 1015.1 |
| 20260507205522 | 50 | 0 | 0.9 | 2.6 | 0.00 | 0.01 | 0.01 | 87 | 1015.0 |
| 20260507205021 | 50 | 0 | 0.9 | 2.6 | 0.00 | 0.01 | 0.01 | 87 | 1014.8 |
| 20260507204542 | 51 | 149 | 0.9 | 2.6 | 0.00 | 0.01 | 0.01 | 87 | 1014.8 |
| 20260507204022 | 51 | 149 | 0.9 | 2.6 | 0.00 | 0.01 | 0.01 | 87 | 1014.8 |
| 20260507203522 | 51 | 149 | 0.9 | 2.6 | 0.00 | 0.01 | 0.01 | 86 | 1014.7 |
| 20260507203108 | 51 | 0 | 0.0 | 1.7 | 0.00 | 0.01 | 0.01 | 86 | 1014.7 |
| 20260507202524 | 52 | 0 | 0.0 | 1.7 | 0.00 | 0.01 | 0.01 | 87 | 1014.8 |
| 20260507202021 | 52 | 0 | 0.0 | 1.7 | 0.00 | 0.01 | 0.01 | 87 | 1014.6 |
| 20260507201540 | 52 | 149 | 0.0 | 1.7 | 0.00 | 0.01 | 0.01 | 86 | 1014.6 |
| 20260507201019 | 52 | 0 | 0.0 | 2.6 | 0.00 | 0.01 | 0.01 | 86 | 1014.6 |
| 20260507200526 | 52 | 149 | 0.9 | 3.5 | 0.00 | 0.01 | 0.01 | 86 | 1014.5 |
| 20260507200037 | 52 | 149 | 1.7 | 3.5 | 0.00 | 0.01 | 0.01 | 86 | 1014.5 |
| 20260507195521 | 52 | 149 | 0.0 | 5.2 | 0.00 | 0.01 | 0.01 | 87 | 1014.4 |
| 20260507195019 | 53 | 149 | 1.7 | 5.2 | 0.00 | 0.01 | 0.01 | 87 | 1014.4 |
| 20260507194548 | 53 | 149 | 1.7 | 4.3 | 0.00 | 0.01 | 0.01 | 87 | 1014.3 |
| 20260507194026 | 53 | 149 | 0.9 | 4.3 | 0.00 | 0.01 | 0.01 | 87 | 1014.3 |
| 20260507193522 | 53 | 149 | 0.9 | 4.3 | 0.00 | 0.01 | 0.01 | 86 | 1014.3 |
| 20260507193042 | 53 | 153 | 0.9 | 4.3 | 0.00 | 0.01 | 0.01 | 86 | 1014.3 |
| 20260507192521 | 53 | 153 | 0.9 | 5.2 | 0.00 | 0.01 | 0.01 | 86 | 1014.2 |
| 20260507192021 | 54 | 153 | 1.7 | 5.2 | 0.00 | 0.01 | 0.01 | 87 | 1014.3 |
| 20260507191545 | 54 | 158 | 1.7 | 5.2 | 0.00 | 0.01 | 0.01 | 87 | 1014.2 |
| 20260507191021 | 54 | 160 | 1.7 | 3.5 | 0.00 | 0.01 | 0.01 | 87 | 1014.3 |
| 20260507190521 | 54 | 0 | 0.0 | 0.9 | 0.00 | 0.01 | 0.01 | 86 | 1014.3 |
| 20260507190046 | 54 | 0 | 0.0 | 1.7 | 0.00 | 0.01 | 0.01 | 86 | 1014.2 |
| 20260507185521 | 54 | 0 | 0.0 | 1.7 | 0.00 | 0.01 | 0.01 | 86 | 1014.2 |
| 20260507185021 | 54 | 0 | 0.0 | 0.0 | 0.00 | 0.01 | 0.01 | 87 | 1014.2 |
| 20260507184535 | 54 | 0 | 0.0 | 0.0 | 0.01 | 0.01 | 0.01 | 87 | 1014.1 |
| 20260507184021 | 54 | 0 | 0.0 | 0.0 | 0.01 | 0.01 | 0.01 | 86 | 1014.0 |
| 20260507183521 | 54 | 0 | 0.0 | 0.0 | 0.01 | 0.01 | 0.01 | 86 | 1014.0 |
| 20260507183041 | 54 | 0 | 0.0 | 0.0 | 0.01 | 0.01 | 0.01 | 86 | 1014.0 |
| 20260507182522 | 54 | 0 | 0.0 | 0.0 | 0.01 | 0.01 | 0.01 | 86 | 1014.0 |
| 20260507182020 | 54 | 0 | 0.0 | 1.7 | 0.01 | 0.01 | 0.01 | 85 | 1013.9 |
| 20260507181543 | 54 | 0 | 0.0 | 1.7 | 0.01 | 0.01 | 0.01 | 84 | 1014.0 |
| 20260507181022 | 54 | 160 | 0.0 | 2.6 | 0.01 | 0.01 | 0.01 | 83 | 1013.9 |
| 20260507180520 | 55 | 0 | 0.0 | 2.6 | 0.01 | 0.01 | 0.01 | 82 | 1013.9 |
| 20260507180042 | 55 | 160 | 0.9 | 5.2 | 0.00 | 0.00 | 0.00 | 80 | 1013.8 |
| 20260507175522 | 55 | 161 | 0.9 | 5.2 | 0.00 | 0.00 | 0.00 | 78 | 1013.8 |
| 20260507175023 | 56 | 161 | 1.7 | 5.2 | 0.00 | 0.00 | 0.00 | 77 | 1013.8 |
| 20260507174543 | 56 | 154 | 0.0 | 3.5 | 0.00 | 0.00 | 0.00 | 75 | 1013.9 |
| 20260507174024 | 56 | 154 | 1.7 | 4.3 | 0.00 | 0.00 | 0.00 | 74 | 1013.8 |
| 20260507173519 | 56 | 0 | 0.9 | 4.3 | 0.00 | 0.00 | 0.00 | 72 | 1013.8 |
| 20260507173058 | 57 | 154 | 1.7 | 4.3 | 0.00 | 0.00 | 0.00 | 71 | 1013.8 |
| 20260507172518 | 57 | 154 | 2.6 | 4.3 | 0.00 | 0.00 | 0.00 | 70 | 1013.8 |
| 20260507172020 | 57 | 138 | 0.9 | 4.3 | 0.00 | 0.00 | 0.00 | 68 | 1013.7 |
| 20260507171543 | 57 | 138 | 1.7 | 4.3 | 0.00 | 0.00 | 0.00 | 68 | 1013.7 |
| 20260507171022 | 57 | 139 | 1.7 | 7.0 | 0.00 | 0.00 | 0.00 | 68 | 1013.7 |
| 20260507170521 | 57 | 139 | 1.7 | 7.0 | 0.00 | 0.00 | 0.00 | 68 | 1013.7 |
| 20260507170042 | 57 | 138 | 1.7 | 7.8 | 0.00 | 0.00 | 0.00 | 67 | 1013.7 |
| 20260507165522 | 57 | 143 | 2.6 | 7.8 | 0.00 | 0.00 | 0.00 | 67 | 1013.8 |
| 20260507165022 | 58 | 143 | 2.6 | 8.7 | 0.00 | 0.00 | 0.00 | 68 | 1013.7 |
| 20260507164541 | 58 | 151 | 2.6 | 8.7 | 0.00 | 0.00 | 0.00 | 67 | 1013.8 |
| 20260507164023 | 58 | 158 | 2.6 | 8.7 | 0.00 | 0.00 | 0.00 | 67 | 1013.8 |
| 20260507163524 | 58 | 148 | 3.5 | 8.7 | 0.00 | 0.00 | 0.00 | 66 | 1013.7 |
| 20260507163040 | 58 | 147 | 1.7 | 8.7 | 0.00 | 0.00 | 0.00 | 66 | 1013.7 |
| 20260507162528 | 58 | 133 | 3.5 | 8.7 | 0.00 | 0.00 | 0.00 | 66 | 1013.7 |
| 20260507162020 | 58 | 138 | 3.5 | 8.7 | 0.00 | 0.00 | 0.00 | 66 | 1013.7 |
| 20260507161543 | 58 | 148 | 2.6 | 10.4 | 0.00 | 0.00 | 0.00 | 66 | 1013.7 |
| 20260507161020 | 58 | 147 | 2.6 | 10.4 | 0.00 | 0.00 | 0.00 | 66 | 1013.8 |
| 20260507160518 | 58 | 155 | 4.3 | 10.4 | 0.00 | 0.00 | 0.00 | 65 | 1013.7 |
| 20260507160038 | 59 | 153 | 4.3 | 10.4 | 0.00 | 0.00 | 0.00 | 65 | 1013.7 |
| 20260507155517 | 59 | 154 | 5.2 | 10.4 | 0.00 | 0.00 | 0.00 | 65 | 1013.8 |
| 20260507155022 | 59 | 180 | 2.6 | 9.6 | 0.00 | 0.00 | 0.00 | 64 | 1013.8 |
| 20260507154541 | 59 | 175 | 4.3 | 11.3 | 0.00 | 0.00 | 0.00 | 63 | 1013.8 |
| 20260507154021 | 59 | 175 | 4.3 | 11.3 | 0.00 | 0.00 | 0.00 | 63 | 1013.8 |
| 20260507153525 | 60 | 156 | 5.2 | 10.4 | 0.00 | 0.00 | 0.00 | 63 | 1013.8 |
| 20260507153041 | 60 | 162 | 4.3 | 9.6 | 0.00 | 0.00 | 0.00 | 62 | 1013.8 |
| 20260507152523 | 61 | 160 | 1.7 | 13.0 | 0.00 | 0.00 | 0.00 | 63 | 1013.8 |
| 20260507152031 | 61 | 116 | 4.3 | 13.0 | 0.00 | 0.00 | 0.00 | 60 | 1013.9 |
| 20260507151542 | 61 | 110 | 3.5 | 10.4 | 0.00 | 0.00 | 0.00 | 62 | 1013.8 |
| 20260507151020 | 60 | 108 | 5.2 | 10.4 | 0.00 | 0.00 | 0.00 | 67 | 1013.7 |
| 20260507150523 | 59 | 139 | 5.2 | 10.4 | 0.00 | 0.00 | 0.00 | 69 | 1013.8 |
| 20260507150043 | 58 | 147 | 2.6 | 9.6 | 0.00 | 0.00 | 0.00 | 67 | 1013.8 |
| 20260507145520 | 58 | 122 | 2.6 | 7.8 | 0.00 | 0.00 | 0.00 | 67 | 1013.9 |
| 20260507145025 | 58 | 129 | 2.6 | 9.6 | 0.00 | 0.00 | 0.00 | 68 | 1014.0 |
| 20260507144541 | 58 | 135 | 3.5 | 9.6 | 0.00 | 0.00 | 0.00 | 65 | 1014.1 |
| 20260507144021 | 58 | 150 | 2.6 | 9.6 | 0.00 | 0.00 | 0.00 | 67 | 1014.0 |
| 20260507143521 | 58 | 147 | 2.6 | 7.8 | 0.00 | 0.00 | 0.00 | 66 | 1014.1 |
| 20260507143054 | 59 | 146 | 2.6 | 7.8 | 0.00 | 0.00 | 0.00 | 65 | 1014.2 |
| 20260507142518 | 59 | 144 | 3.5 | 7.8 | 0.00 | 0.00 | 0.00 | 64 | 1014.3 |
| 20260507142027 | 59 | 126 | 3.5 | 8.7 | 0.00 | 0.00 | 0.00 | 63 | 1014.3 |
| 20260507141550 | 59 | 146 | 3.5 | 11.3 | 0.00 | 0.00 | 0.00 | 62 | 1014.3 |
| 20260507141020 | 60 | 156 | 3.5 | 13.9 | 0.00 | 0.00 | 0.00 | 61 | 1014.4 |
| 20260507140521 | 60 | 155 | 6.1 | 13.9 | 0.00 | 0.00 | 0.00 | 61 | 1014.3 |
| 20260507140039 | 61 | 143 | 4.3 | 9.6 | 0.00 | 0.00 | 0.00 | 63 | 1014.4 |
| 20260507135519 | 61 | 143 | 4.3 | 13.0 | 0.00 | 0.00 | 0.00 | 62 | 1014.4 |
| 20260507135019 | 62 | 118 | 6.1 | 13.0 | 0.00 | 0.00 | 0.00 | 62 | 1014.4 |
| 20260507134536 | 62 | 133 | 4.3 | 12.2 | 0.00 | 0.00 | 0.00 | 61 | 1014.5 |
| 20260507134017 | 62 | 155 | 6.1 | 12.2 | 0.00 | 0.00 | 0.00 | 61 | 1014.4 |
| 20260507133521 | 63 | 162 | 4.3 | 12.2 | 0.00 | 0.00 | 0.00 | 61 | 1014.5 |
| 20260507133109 | 63 | 113 | 4.3 | 12.2 | 0.00 | 0.00 | 0.00 | 61 | 1014.5 |
| 20260507132523 | 63 | 133 | 3.5 | 11.3 | 0.00 | 0.00 | 0.00 | 66 | 1014.6 |
| 20260507132020 | 62 | 139 | 5.2 | 11.3 | 0.00 | 0.00 | 0.00 | 66 | 1014.7 |
| 20260507131545 | 61 | 216 | 5.2 | 11.3 | 0.00 | 0.00 | 0.00 | 68 | 1014.6 |
| 20260507131311 | 60 | 140 | 4.3 | 10.4 | 0.00 | 0.00 | 0.00 | 67 | 1014.6 |
| 20260507130521 | 60 | 133 | 2.6 | 13.0 | 0.00 | 0.00 | 0.00 | 68 | 1014.6 |
| 20260507130053 | 59 | 145 | 5.2 | 13.0 | 0.00 | 0.00 | 0.00 | 67 | 1014.6 |
| 20260507125517 | 59 | 155 | 5.2 | 10.4 | 0.00 | 0.00 | 0.00 | 66 | 1014.7 |
| 20260507125017 | 59 | 164 | 2.6 | 12.2 | 0.00 | 0.00 | 0.00 | 67 | 1014.6 |
| 20260507124547 | 59 | 165 | 6.1 | 13.9 | 0.00 | 0.00 | 0.00 | 67 | 1014.8 |
| 20260507124018 | 59 | 133 | 7.0 | 13.9 | 0.00 | 0.00 | 0.00 | 68 | 1014.8 |
| 20260507123522 | 59 | 180 | 6.1 | 10.4 | 0.00 | 0.00 | 0.00 | 66 | 1014.6 |
| 20260507123044 | 59 | 149 | 5.2 | 11.3 | 0.00 | 0.00 | 0.00 | 68 | 1014.7 |
| 20260507122518 | 59 | 180 | 3.5 | 12.2 | 0.00 | 0.00 | 0.00 | 70 | 1014.9 |
| 20260507122019 | 58 | 156 | 3.5 | 13.0 | 0.00 | 0.00 | 0.00 | 70 | 1014.9 |
| 20260507121537 | 58 | 136 | 4.3 | 13.0 | 0.00 | 0.00 | 0.00 | 68 | 1014.9 |
| 20260507121047 | 58 | 145 | 6.1 | 13.0 | 0.00 | 0.00 | 0.00 | 67 | 1015.0 |
| 20260507120521 | 58 | 139 | 4.3 | 12.2 | 0.00 | 0.00 | 0.00 | 69 | 1015.0 |
| 20260507120041 | 57 | 212 | 5.2 | 12.2 | 0.00 | 0.00 | 0.00 | 67 | 1015.2 |
| 20260507115521 | 57 | 206 | 4.3 | 10.4 | 0.00 | 0.00 | 0.00 | 70 | 1015.2 |
| 20260507115022 | 57 | 197 | 4.3 | 9.6 | 0.00 | 0.00 | 0.00 | 68 | 1015.3 |
| 20260507114555 | 57 | 122 | 4.3 | 10.4 | 0.00 | 0.00 | 0.00 | 72 | 1015.3 |
| 20260507114021 | 57 | 142 | 3.5 | 10.4 | 0.00 | 0.00 | 0.00 | 70 | 1015.3 |
| 20260507113519 | 57 | 189 | 4.3 | 9.6 | 0.00 | 0.00 | 0.00 | 70 | 1015.3 |
| 20260507113041 | 57 | 151 | 3.5 | 10.4 | 0.00 | 0.00 | 0.00 | 72 | 1015.4 |
| 20260507112518 | 56 | 149 | 5.2 | 10.4 | 0.00 | 0.00 | 0.00 | 72 | 1015.3 |
| 20260507112022 | 56 | 125 | 4.3 | 12.2 | 0.00 | 0.00 | 0.00 | 73 | 1015.3 |
| 20260507111539 | 56 | 127 | 6.1 | 12.2 | 0.00 | 0.00 | 0.00 | 74 | 1015.3 |
| 20260507111021 | 55 | 120 | 5.2 | 10.4 | 0.00 | 0.00 | 0.00 | 75 | 1015.5 |
| 20260507110521 | 55 | 136 | 5.2 | 10.4 | 0.00 | 0.00 | 0.00 | 76 | 1015.4 |
| 20260507110042 | 54 | 160 | 4.3 | 11.3 | 0.00 | 0.00 | 0.00 | 75 | 1015.6 |
| 20260507105521 | 54 | 149 | 4.3 | 11.3 | 0.00 | 0.00 | 0.00 | 76 | 1015.6 |
| 20260507105021 | 54 | 139 | 4.3 | 10.4 | 0.00 | 0.00 | 0.00 | 77 | 1015.7 |
| 20260507104541 | 54 | 147 | 4.3 | 10.4 | 0.00 | 0.00 | 0.00 | 78 | 1015.7 |
| 20260507104021 | 53 | 126 | 2.6 | 9.6 | 0.00 | 0.00 | 0.00 | 80 | 1015.7 |
| 20260507103518 | 53 | 121 | 4.3 | 9.6 | 0.00 | 0.00 | 0.00 | 81 | 1015.8 |
| 20260507103048 | 52 | 141 | 4.3 | 9.6 | 0.00 | 0.00 | 0.00 | 80 | 1015.9 |
| 20260507102520 | 52 | 159 | 2.6 | 10.4 | 0.00 | 0.00 | 0.00 | 81 | 1015.8 |
| 20260507102018 | 51 | 131 | 4.3 | 10.4 | 0.00 | 0.00 | 0.00 | 82 | 1015.8 |
| 20260507101540 | 51 | 125 | 3.5 | 9.6 | 0.00 | 0.00 | 0.00 | 83 | 1015.8 |
| 20260507101019 | 51 | 113 | 6.1 | 9.6 | 0.00 | 0.00 | 0.00 | 83 | 1015.8 |